Location: Unspecified
(42.9386°N, 0.0000°E)
Time: 21:42:23
(UTC+00:00)

Tiangong 2 - Visible Passes

Search period start: 18 June 2019 00:00
Search period end: 28 June 2019 00:00
Orbit: 376 x 389 km, 42.8° (Epoch: 18 June)

Date Brightness Start Highest point End Pass type
(mag) Time Alt. Az. Time Alt. Az. Time Alt. Az.
24 Jun 3.4 03:37:48 10° S 03:39:37 14° SSE 03:41:26 10° ESE visible
26 Jun 2.7 03:13:48 14° SSW 03:15:38 23° SSE 03:18:12 10° E visible
27 Jun 3.4 02:16:09 13° SE 02:16:09 13° SE 02:17:20 10° ESE visible
